EXPLORER 31 (ISIS-X)

Satellite information

Favourite Embed

Satellite Type and Status

PAYLOADIN ORBIT

Key statistics

Satellite EXPLORER 31 (ISIS-X) at a glance.

Uptime

21929

Days in orbit

Revolutions

≈ 12.1

Per day

Orbit

HEO

HEO

Inclination

79.8

Latest

Satellite identification and parameters

Extended collection of information and parameters for EXPLORER 31 (ISIS-X).

Object identification

Identified? True

Debris? False

Object name: EXPLORER 31 (ISIS-X)

International designator: 1965-098B

Object number (NORAD): 1806

Object ID (CCSDS): 1806

Country: UNITED STATES OF AMERICA (US)

Current information (Y/N): Y

RCS size: MEDIUM

Orbital parameters

Period: 119.189 minutes

Inclination: 79.776 deg

SMA: 8022.634 km

Apoapsis: 2786.47 km

Periapsis: 502.529 km

RAAN: 144.2717 deg

Eccentricy: 0.1423436

Argument of periapsis: 141.6371 deg

Mean anomaly: 229.515 deg

Mean motion: 12.08167859 rev/day

Mean motion (dot): 0.00001801 rev/day2

B* drag term: 0.00062255 1/REarth

Two-line elements (TLE)

Creation date: Dec. 12, 2025, 7:16 a.m.

Reference frame: TEME

Reference center: EARTH

Epoch: Dec. 11, 2025, 9:36 p.m. UTC

TLE line 0: 0 EXPLORER 31 (ISIS-X)

TLE line 1: 1 1806U 65098B 25345.90061824 .00001801 00000-0 62255-3 0 9995

TLE line 2: 2 1806 79.7760 144.2717 1423436 141.6371 229.5150 12.08167859626077

Live tracking on map

Real-time ground track for satellite EXPLORER 31 (ISIS-X).

In-orbit conjunctions

A list of the most updated potential collisions computed for object EXPLORER 31 (ISIS-X).

Target Orbit TCA Probability of collision Miss distance Type
CZ-6A DEB SSO 2024-10-10 06:46:48 0.0001140903 351.0 (m) DEBRIS

Associated space launch

Canadian small ionospheric observatory instrumented with a sweep-frequency ionospheric sounder, a VLF receiver, an energetic particle experiment, a cosmic noise experiment, and an electrostatic probe.

EXPLORER 31 (ISIS-X) was lifted into orbit during the mission ‘Thor SLV-2 Agena B | Alouette 2’, on board a Thor SLV-2 Agena B space rocket.

The launch took place on Nov. 29, 1965, 4:48 a.m. from Space Launch Complex 2E.

For more information about the launch, click the button.

Launch to space Thor SLV-2 Agena B | Alouette 2
Thor SLV-2 Agena B | Alouette 2

Agency: N/A

Status: Launch Successful

Launch date: Nov. 29, 1965, 4:48 a.m. UTC

Rocket: Thor SLV-2 Agena B

Launch pad: Space Launch Complex 2E

Location: Vandenberg SFB, CA, USA

...

Latest news about this satellite

There are no fresh news available about this satellite. Check back as we update our databases every day.


Newsletter sign-up

Weekly statistics, charts and insights to help you stay on top of the space industry.